AOBA VELOX-IV (43940 NORAD) Tracking and Keplerian Element Data

This shows tracking and keplerian element data for the satellite.

Feedback or suggestion? Click here.




ElementValue
Catalog43940
NameAOBA VELOX-IV
Epoch Orbit3213
Epoch Day229.10235
Epoch Year2019
RAAN285.2465
Inclination97.274
Eccentricity0.0023516
Argument of Perigee219.6376
Mean Anonmoly196.2194
Mean Motion15.2393786
Decay Rate8.17E-06
L11 43940U 19003J 19229.10235000 .00000817 00000-0 36446-4 0 9990
L22 43940 97.2740 285.2465 0023516 219.6376 196.2194 15.23937860 32139

Live tracking and technical data element details for AOBA VELOX-IV (NORAD 43940). AOBA VELOX-IV can be tracked NOW for your location showing map with azimuth and elevation plus other details from your city location.

Track the satellite on the map from your city or location and see movement details for azimuth, elevation, latitude, longitude, range, height, and movement on the map or in text.







IsCatalogInMostPopularTable: catalog: 43940, numindb: 153
Update: records affected: 1



GetName: 43940 AOBA VELOX-IV

Hit Count: updated at: Tue, 20 Aug 2019 19:28:19 GMT